﻿測定場所 (Monitoring sites),日付 (Measurement date),時間 (Measurement time),線量率 最大値 (max) μGy/h,線量率 最小値 (min) μGy/h,線量率 平均値 (average) μGy/h,
新宿 (Shinjuku),2013-01-06,23:01～24:00,0.0498,0.0420,0.0457,
新宿 (Shinjuku),2013-01-06,22:01～23:00,0.0485,0.0426,0.0455,
新宿 (Shinjuku),2013-01-06,21:01～22:00,0.0500,0.0418,0.0462,
新宿 (Shinjuku),2013-01-06,20:01～21:00,0.0490,0.0426,0.0460,
新宿 (Shinjuku),2013-01-06,19:01～20:00,0.0490,0.0414,0.0455,
新宿 (Shinjuku),2013-01-06,18:01～19:00,0.0478,0.0415,0.0454,
新宿 (Shinjuku),2013-01-06,17:01～18:00,0.0481,0.0424,0.0457,
新宿 (Shinjuku),2013-01-06,16:01～17:00,0.0493,0.0425,0.0452,
新宿 (Shinjuku),2013-01-06,15:01～16:00,0.0494,0.0424,0.0455,
新宿 (Shinjuku),2013-01-06,14:01～15:00,0.0501,0.0427,0.0457,
新宿 (Shinjuku),2013-01-06,13:01～14:00,0.0490,0.0425,0.0460,
新宿 (Shinjuku),2013-01-06,12:01～13:00,0.0500,0.0429,0.0463,
新宿 (Shinjuku),2013-01-06,11:01～12:00,0.0510,0.0434,0.0470,
新宿 (Shinjuku),2013-01-06,10:01～11:00,0.0501,0.0439,0.0467,
新宿 (Shinjuku),2013-01-06,09:01～10:00,0.0496,0.0433,0.0464,
新宿 (Shinjuku),2013-01-06,08:01～09:00,0.0505,0.0438,0.0470,
新宿 (Shinjuku),2013-01-06,07:01～08:00,0.0516,0.0446,0.0473,
新宿 (Shinjuku),2013-01-06,06:01～07:00,0.0505,0.0441,0.0468,
新宿 (Shinjuku),2013-01-06,05:01～06:00,0.0498,0.0421,0.0466,
新宿 (Shinjuku),2013-01-06,04:01～05:00,0.0509,0.0441,0.0465,
新宿 (Shinjuku),2013-01-06,03:01～04:00,0.0495,0.0428,0.0464,
新宿 (Shinjuku),2013-01-06,02:01～03:00,0.0482,0.0435,0.0460,
新宿 (Shinjuku),2013-01-06,01:01～02:00,0.0496,0.0432,0.0460,
新宿 (Shinjuku),2013-01-06,00:01～01:00,0.0483,0.0433,0.0458,
新宿 (Shinjuku),2013-01-05,23:01～24:00,0.0487,0.0423,0.0458,
新宿 (Shinjuku),2013-01-05,22:01～23:00,0.0488,0.0433,0.0462,
新宿 (Shinjuku),2013-01-05,21:01～22:00,0.0492,0.0416,0.0457,
新宿 (Shinjuku),2013-01-05,20:01～21:00,0.0486,0.0423,0.0457,
新宿 (Shinjuku),2013-01-05,19:01～20:00,0.0508,0.0427,0.0457,
新宿 (Shinjuku),2013-01-05,18:01～19:00,0.0491,0.0428,0.0461,
新宿 (Shinjuku),2013-01-05,17:01～18:00,0.0482,0.0429,0.0455,
新宿 (Shinjuku),2013-01-05,16:01～17:00,0.0480,0.0424,0.0456,
新宿 (Shinjuku),2013-01-05,15:01～16:00,0.0487,0.0417,0.0455,
新宿 (Shinjuku),2013-01-05,14:01～15:00,0.0488,0.0428,0.0450,
新宿 (Shinjuku),2013-01-05,13:01～14:00,0.0487,0.0430,0.0457,
新宿 (Shinjuku),2013-01-05,12:01～13:00,0.0491,0.0429,0.0453,
新宿 (Shinjuku),2013-01-05,11:01～12:00,0.0492,0.0418,0.0458,
新宿 (Shinjuku),2013-01-05,10:01～11:00,0.0483,0.0431,0.0456,
新宿 (Shinjuku),2013-01-05,09:01～10:00,0.0490,0.0427,0.0458,
新宿 (Shinjuku),2013-01-05,08:01～09:00,0.0481,0.0427,0.0455,
新宿 (Shinjuku),2013-01-05,07:01～08:00,0.0490,0.0423,0.0453,
新宿 (Shinjuku),2013-01-05,06:01～07:00,0.0494,0.0414,0.0454,
新宿 (Shinjuku),2013-01-05,05:01～06:00,0.0487,0.0418,0.0454,
新宿 (Shinjuku),2013-01-05,04:01～05:00,0.0485,0.0414,0.0451,
新宿 (Shinjuku),2013-01-05,03:01～04:00,0.0487,0.0411,0.0452,
新宿 (Shinjuku),2013-01-05,02:01～03:00,0.0485,0.0433,0.0456,
新宿 (Shinjuku),2013-01-05,01:01～02:00,0.0489,0.0432,0.0458,
新宿 (Shinjuku),2013-01-05,00:01～01:00,0.0490,0.0407,0.0455,
新宿 (Shinjuku),2013-01-04,23:01～24:00,0.0483,0.0424,0.0453,
新宿 (Shinjuku),2013-01-04,22:01～23:00,0.0486,0.0415,0.0453,
新宿 (Shinjuku),2013-01-04,21:01～22:00,0.0481,0.0395,0.0450,
新宿 (Shinjuku),2013-01-04,20:01～21:00,0.0491,0.0416,0.0449,
新宿 (Shinjuku),2013-01-04,19:01～20:00,0.0489,0.0416,0.0451,
新宿 (Shinjuku),2013-01-04,18:01～19:00,0.0489,0.0408,0.0451,
新宿 (Shinjuku),2013-01-04,17:01～18:00,0.0481,0.0412,0.0451,
新宿 (Shinjuku),2013-01-04,16:01～17:00,0.0488,0.0429,0.0457,
新宿 (Shinjuku),2013-01-04,15:01～16:00,0.0480,0.0428,0.0457,
新宿 (Shinjuku),2013-01-04,14:01～15:00,0.0485,0.0420,0.0454,
新宿 (Shinjuku),2013-01-04,13:01～14:00,0.0494,0.0429,0.0453,
新宿 (Shinjuku),2013-01-04,12:01～13:00,0.0491,0.0414,0.0452,
新宿 (Shinjuku),2013-01-04,11:01～12:00,0.0496,0.0410,0.0454,
新宿 (Shinjuku),2013-01-04,10:01～11:00,0.0482,0.0416,0.0451,
新宿 (Shinjuku),2013-01-04,09:01～10:00,0.0501,0.0423,0.0456,
新宿 (Shinjuku),2013-01-04,08:01～09:00,0.0487,0.0426,0.0456,
新宿 (Shinjuku),2013-01-04,07:01～08:00,0.0486,0.0427,0.0454,
新宿 (Shinjuku),2013-01-04,06:01～07:00,0.0490,0.0417,0.0456,
新宿 (Shinjuku),2013-01-04,05:01～06:00,0.0495,0.0426,0.0456,
新宿 (Shinjuku),2013-01-04,04:01～05:00,0.0492,0.0425,0.0462,
新宿 (Shinjuku),2013-01-04,03:01～04:00,0.0509,0.0419,0.0458,
新宿 (Shinjuku),2013-01-04,02:01～03:00,0.0497,0.0432,0.0461,
新宿 (Shinjuku),2013-01-04,01:01～02:00,0.0503,0.0421,0.0458,
新宿 (Shinjuku),2013-01-04,00:01～01:00,0.0490,0.0422,0.0458,
新宿 (Shinjuku),2013-01-03,23:01～24:00,0.0490,0.0433,0.0464,
新宿 (Shinjuku),2013-01-03,22:01～23:00,0.0490,0.0421,0.0457,
新宿 (Shinjuku),2013-01-03,21:01～22:00,0.0498,0.0429,0.0459,
新宿 (Shinjuku),2013-01-03,20:01～21:00,0.0494,0.0429,0.0454,
新宿 (Shinjuku),2013-01-03,19:01～20:00,0.0487,0.0414,0.0452,
新宿 (Shinjuku),2013-01-03,18:01～19:00,0.0503,0.0417,0.0458,
新宿 (Shinjuku),2013-01-03,17:01～18:00,0.0492,0.0420,0.0459,
新宿 (Shinjuku),2013-01-03,16:01～17:00,0.0486,0.0423,0.0459,
新宿 (Shinjuku),2013-01-03,15:01～16:00,0.0505,0.0431,0.0459,
新宿 (Shinjuku),2013-01-03,14:01～15:00,0.0490,0.0419,0.0458,
新宿 (Shinjuku),2013-01-03,13:01～14:00,0.0497,0.0424,0.0459,
新宿 (Shinjuku),2013-01-03,12:01～13:00,0.0497,0.0423,0.0460,
新宿 (Shinjuku),2013-01-03,11:01～12:00,0.0508,0.0428,0.0461,
新宿 (Shinjuku),2013-01-03,10:01～11:00,0.0503,0.0421,0.0459,
新宿 (Shinjuku),2013-01-03,09:01～10:00,0.0491,0.0421,0.0458,
新宿 (Shinjuku),2013-01-03,08:01～09:00,0.0494,0.0433,0.0459,
新宿 (Shinjuku),2013-01-03,07:01～08:00,0.0506,0.0425,0.0460,
新宿 (Shinjuku),2013-01-03,06:01～07:00,0.0492,0.0417,0.0457,
新宿 (Shinjuku),2013-01-03,05:01～06:00,0.0485,0.0422,0.0454,
新宿 (Shinjuku),2013-01-03,04:01～05:00,0.0486,0.0426,0.0457,
新宿 (Shinjuku),2013-01-03,03:01～04:00,0.0496,0.0417,0.0457,
新宿 (Shinjuku),2013-01-03,02:01～03:00,0.0495,0.0410,0.0456,
新宿 (Shinjuku),2013-01-03,01:01～02:00,0.0492,0.0413,0.0456,
新宿 (Shinjuku),2013-01-03,00:01～01:00,0.0502,0.0429,0.0460,
新宿 (Shinjuku),2013-01-02,23:01～24:00,0.0497,0.0431,0.0459,
新宿 (Shinjuku),2013-01-02,22:01～23:00,0.0498,0.0422,0.0461,
新宿 (Shinjuku),2013-01-02,21:01～22:00,0.0497,0.0423,0.0458,
新宿 (Shinjuku),2013-01-02,20:01～21:00,0.0487,0.0419,0.0456,
新宿 (Shinjuku),2013-01-02,19:01～20:00,0.0480,0.0439,0.0459,
新宿 (Shinjuku),2013-01-02,18:01～19:00,0.0482,0.0431,0.0458,
新宿 (Shinjuku),2013-01-02,17:01～18:00,0.0494,0.0406,0.0458,
新宿 (Shinjuku),2013-01-02,16:01～17:00,0.0489,0.0435,0.0460,
新宿 (Shinjuku),2013-01-02,15:01～16:00,0.0487,0.0422,0.0457,
新宿 (Shinjuku),2013-01-02,14:01～15:00,0.0482,0.0423,0.0455,
新宿 (Shinjuku),2013-01-02,13:01～14:00,0.0498,0.0430,0.0458,
新宿 (Shinjuku),2013-01-02,12:01～13:00,0.0490,0.0420,0.0457,
新宿 (Shinjuku),2013-01-02,11:01～12:00,0.0483,0.0428,0.0457,
新宿 (Shinjuku),2013-01-02,10:01～11:00,0.0492,0.0425,0.0456,
新宿 (Shinjuku),2013-01-02,09:01～10:00,0.0506,0.0410,0.0453,
新宿 (Shinjuku),2013-01-02,08:01～09:00,0.0484,0.0432,0.0458,
新宿 (Shinjuku),2013-01-02,07:01～08:00,0.0486,0.0420,0.0459,
新宿 (Shinjuku),2013-01-02,06:01～07:00,0.0492,0.0432,0.0462,
新宿 (Shinjuku),2013-01-02,05:01～06:00,0.0496,0.0425,0.0457,
新宿 (Shinjuku),2013-01-02,04:01～05:00,0.0481,0.0423,0.0456,
新宿 (Shinjuku),2013-01-02,03:01～04:00,0.0493,0.0427,0.0458,
新宿 (Shinjuku),2013-01-02,02:01～03:00,0.0484,0.0429,0.0456,
新宿 (Shinjuku),2013-01-02,01:01～02:00,0.0490,0.0426,0.0460,
新宿 (Shinjuku),2013-01-02,00:01～01:00,0.0486,0.0429,0.0459,
新宿 (Shinjuku),2013-01-01,23:01～24:00,0.0488,0.0431,0.0460,
新宿 (Shinjuku),2013-01-01,22:01～23:00,0.0492,0.0425,0.0458,
新宿 (Shinjuku),2013-01-01,21:01～22:00,0.0476,0.0418,0.0456,
新宿 (Shinjuku),2013-01-01,20:01～21:00,0.0495,0.0419,0.0460,
新宿 (Shinjuku),2013-01-01,19:01～20:00,0.0488,0.0436,0.0457,
新宿 (Shinjuku),2013-01-01,18:01～19:00,0.0485,0.0428,0.0457,
新宿 (Shinjuku),2013-01-01,17:01～18:00,0.0491,0.0427,0.0454,
新宿 (Shinjuku),2013-01-01,16:01～17:00,0.0474,0.0419,0.0453,
新宿 (Shinjuku),2013-01-01,15:01～16:00,0.0479,0.0422,0.0453,
新宿 (Shinjuku),2013-01-01,14:01～15:00,0.0487,0.0420,0.0454,
新宿 (Shinjuku),2013-01-01,13:01～14:00,0.0493,0.0411,0.0456,
新宿 (Shinjuku),2013-01-01,12:01～13:00,0.0488,0.0428,0.0455,
新宿 (Shinjuku),2013-01-01,11:01～12:00,0.0491,0.0428,0.0458,
新宿 (Shinjuku),2013-01-01,10:01～11:00,0.0493,0.0418,0.0461,
新宿 (Shinjuku),2013-01-01,09:01～10:00,0.0497,0.0431,0.0465,
新宿 (Shinjuku),2013-01-01,08:01～09:00,0.0514,0.0427,0.0466,
新宿 (Shinjuku),2013-01-01,07:01～08:00,0.0506,0.0431,0.0460,
新宿 (Shinjuku),2013-01-01,06:01～07:00,0.0507,0.0413,0.0462,
新宿 (Shinjuku),2013-01-01,05:01～06:00,0.0501,0.0403,0.0463,
新宿 (Shinjuku),2013-01-01,04:01～05:00,0.0488,0.0428,0.0459,
新宿 (Shinjuku),2013-01-01,03:01～04:00,0.0482,0.0419,0.0458,
新宿 (Shinjuku),2013-01-01,02:01～03:00,0.0487,0.0411,0.0456,
新宿 (Shinjuku),2013-01-01,01:01～02:00,0.0479,0.0418,0.0453,
新宿 (Shinjuku),2013-01-01,00:01～01:00,0.0494,0.0416,0.0458,
新宿 (Shinjuku),2012-12-31,23:01～24:00,0.0497,0.0427,0.0459,
新宿 (Shinjuku),2012-12-31,22:01～23:00,0.0487,0.0428,0.0457,
新宿 (Shinjuku),2012-12-31,21:01～22:00,0.0489,0.0425,0.0457,
新宿 (Shinjuku),2012-12-31,20:01～21:00,0.0490,0.0417,0.0457,
新宿 (Shinjuku),2012-12-31,19:01～20:00,0.0491,0.0425,0.0456,
新宿 (Shinjuku),2012-12-31,18:01～19:00,0.0486,0.0416,0.0455,
新宿 (Shinjuku),2012-12-31,17:01～18:00,0.0495,0.0425,0.0458,
新宿 (Shinjuku),2012-12-31,16:01～17:00,0.0491,0.0422,0.0460,
新宿 (Shinjuku),2012-12-31,15:01～16:00,0.0506,0.0436,0.0470,
新宿 (Shinjuku),2012-12-31,14:01～15:00,0.0518,0.0431,0.0471,
新宿 (Shinjuku),2012-12-31,13:01～14:00,0.0512,0.0433,0.0469,
新宿 (Shinjuku),2012-12-31,12:01～13:00,0.0510,0.0434,0.0469,
新宿 (Shinjuku),2012-12-31,11:01～12:00,0.0505,0.0436,0.0470,
新宿 (Shinjuku),2012-12-31,10:01～11:00,0.0502,0.0444,0.0473,
新宿 (Shinjuku),2012-12-31,09:01～10:00,0.0501,0.0435,0.0472,
新宿 (Shinjuku),2012-12-31,08:01～09:00,0.0502,0.0441,0.0470,
新宿 (Shinjuku),2012-12-31,07:01～08:00,0.0505,0.0442,0.0473,
新宿 (Shinjuku),2012-12-31,06:01～07:00,0.0527,0.0446,0.0472,
新宿 (Shinjuku),2012-12-31,05:01～06:00,0.0496,0.0427,0.0465,
新宿 (Shinjuku),2012-12-31,04:01～05:00,0.0495,0.0427,0.0464,
新宿 (Shinjuku),2012-12-31,03:01～04:00,0.0501,0.0427,0.0465,
新宿 (Shinjuku),2012-12-31,02:01～03:00,0.0498,0.0428,0.0462,
新宿 (Shinjuku),2012-12-31,01:01～02:00,0.0498,0.0436,0.0465,
新宿 (Shinjuku),2012-12-31,00:01～01:00,0.0488,0.0430,0.0460,
